Location: Binningen
(47.7924°N, 8.7261°E)
Time: 08:21:52
(UTC+00:00)

Cosmos 1544 - Pass Details

Date: 17 May 2021
Orbit: 471 x 487 km, 82.5° (Epoch: 20 June)

Event Time Altitude Azimuth Distance (km) Brightness Sun altitude
Rises 20:27:44 0° 355° (N) 2,544 7.7 -12.2°
Reaches altitude 10° 20:29:54 10° 1° (N) 1,663 6.5 -12.5°
Maximum altitude 20:33:26 49° 77° (ENE) 631 3.4 -12.9°
Enters shadow 20:35:25 23° 143° (SE) 1,073 4.2 -13.1°
